Location: ??????
(56.0120°N, 39.1740°E)
Time: 19:35:03
(UTC+00:00)

Cosmos 2322 - Pass Details

Date: 14 April 2026
Orbit: 839 x 854 km, 71.0° (Epoch: 19 May)

Event Time Altitude Azimuth Distance (km) Brightness Sun altitude
Rises 18:23:21 0° 218° (SW) 3,410 6.8 -14.5°
Reaches altitude 10° 18:25:48 10° 220° (SW) 2,479 6.1 -14.8°
Maximum altitude 18:31:31 77° 306° (NW) 884 3.9 -15.3°
Drops below altitude 10° 18:37:16 10° 33° (NNE) 2,498 6.3 -15.9°
Sets 18:39:45 0° 36° (NE) 3,437 7.0 -16.1°
